This is the latest recevied weather packets stored in our database for station/object KO4ZGL-13. If no packets are shown the sender has not sent any weather packets the latest 10 day(s).
| Time | Temp. | Humidity | Pressure | Rain* | Wind** | Luminosity | Snow |
|---|---|---|---|---|---|---|---|
| 1788106196 | 28.89° C | 89% | 1022.4 hPa | 0 mm | - | 230 W/m² | - |
| 1788105893 | 29.44° C | 89% | 1022.5 hPa | 0 mm | - | 249 W/m² | - |
| 1788105587 | 29.44° C | 88% | 1022.4 hPa | 0 mm | - | 287 W/m² | - |
| 1788105284 | 28.89° C | 89% | 1022.6 hPa | 0 mm | - | 323 W/m² | - |
| 1788104978 | 28.33° C | 87% | 1022.7 hPa | 0 mm | - | 384 W/m² | - |
| 1788104674 | 28.33° C | 88% | 1022.5 hPa | 0 mm | - | 397 W/m² | - |
| 1788104370 | 28.89° C | 90% | 1022.6 hPa | 0 mm | - | 324 W/m² | - |
| 1788104066 | 28.33° C | 90% | 1022.7 hPa | 0 mm | - | 311 W/m² | - |
| 1788103765 | 28.89° C | 90% | 1022.8 hPa | 0 mm | - | 336 W/m² | - |
| 1788103460 | 28.89° C | 90% | 1022.7 hPa | 0 mm | - | 333 W/m² | - |
| 1788103153 | 28.89° C | 90% | 1022.8 hPa | 0 mm | - | 262 W/m² | - |
| 1788102848 | 28.33° C | 91% | 1022.4 hPa | 0 mm | - | 253 W/m² | - |
| 1788102543 | 28.33° C | 93% | 1022.5 hPa | 0 mm | - | 246 W/m² | - |
| 1788102243 | 27.78° C | 95% | 1022.4 hPa | 0 mm | - | 526 W/m² | - |
| 1788101937 | 26.67° C | 99% | 1022.8 hPa | 0 mm | - | 452 W/m² | - |
| 1788101632 | 26.67° C | 99% | 1022.4 hPa | 0 mm | - | 304 W/m² | - |
| 1788101326 | 26.67° C | 99% | 1022.6 hPa | 0 mm | - | 331 W/m² | - |
| 1788101023 | 26.67° C | 99% | 1022.6 hPa | 0 mm | - | 453 W/m² | - |
| 1788100718 | 26.11° C | 99% | 1022.6 hPa | 0 mm | - | 764 W/m² | - |
| 1788100418 | 26.67° C | 99% | 1022.3 hPa | 0 mm | - | 738 W/m² | - |
| 1788100112 | 25.56° C | 99% | 1022.5 hPa | 0 mm | - | 712 W/m² | - |
| 1788099808 | 25.56° C | 99% | 1022.5 hPa | 0 mm | - | 751 W/m² | - |
| 1788099502 | 25.56° C | 99% | 1022.5 hPa | 0 mm | - | 247 W/m² | - |
| 1788099197 | 25° C | 99% | 1022.5 hPa | 0 mm | - | 250 W/m² | - |
| 1788098892 | 25° C | 99% | 1022.4 hPa | 0 mm | - | 223 W/m² | - |
* Rain latest hour (hover to see other rain measurements)
** Current wind speed in m/s (hover to see current wind gust speed)